Terug naar catalogus

STARLINK-1300

ActiefCommunicatieVLEO
NORAD 45374·PAYLOAD·🇺🇸 United States

Gelanceerd Mar 18, 2020 vanaf Cape Canaveral Space Force Station

Loading…

Volgende Passages (komende 24 uur)

TLE

VersSource: CelesTrak SupGP

Epoch: Sep 15, 2026, 01:52 UTC

1 45374C 20019Q   26258.07826389  .00056139  00000+0  11958-2 0  2588
2 45374  53.1543 357.7043 0002372  30.0723 203.3838 15.44319145    19

Volg STARLINK-1300 in realtime met AllMySat

Download on the App Store